owner,sensor,date,latitude,longitude,vertical_datum,wind_speed,wind_to_direction,wind_speed_of_gust,qcFlag 
NDBC,ioos:station:wmo:42003:1,2019-07-09T18:50:00Z,26.0070,-85.6480,5.0,6.0,300.0,7.0,'11111222,11111222,11111222' 
NDBC,ioos:station:wmo:42003:1,2019-07-09T19:50:00Z,26.0070,-85.6480,5.0,5.0,300.0,6.0,'11111222,11111222,11111222' 
NDBC,ioos:station:wmo:42003:1,2019-07-09T20:50:00Z,26.0070,-85.6480,5.0,4.0,280.0,5.0,'11111222,11111222,11111222' 
NDBC,ioos:station:wmo:42003:1,2019-07-09T21:50:00Z,26.0070,-85.6480,5.0,4.0,290.0,5.0,'11111222,11111222,11111222' 
NDBC,ioos:station:wmo:42003:1,2019-07-09T22:50:00Z,26.0070,-85.6480,5.0,3.0,280.0,4.0,'11111222,11111222,11111222' 
NDBC,ioos:station:wmo:42003:1,2019-07-09T23:50:00Z,26.0070,-85.6480,5.0,4.0,340.0,4.0,'11111222,11111222,11111222' 
NDBC,ioos:station:wmo:42003:1,2019-07-10T00:50:00Z,26.0070,-85.6480,5.0,4.0,220.0,5.0,'11111222,11111222,11111222' 
NDBC,ioos:station:wmo:42003:1,2019-07-10T01:40:00Z,26.0070,-85.6480,5.0,3.0,220.0,4.0,'11111222,11111222,11111222' 
NDBC,ioos:station:wmo:42003:1,2019-07-10T02:50:00Z,26.0070,-85.6480,5.0,3.0,230.0,4.0,'11111222,11111222,11111222' 
NDBC,ioos:station:wmo:42003:1,2019-07-10T03:50:00Z,26.0070,-85.6480,5.0,3.0,240.0,3.0,'11111222,11111222,11111222' 
NDBC,ioos:station:wmo:42003:1,2019-07-10T04:50:00Z,26.0070,-85.6480,5.0,3.0,270.0,3.0,'11111222,11111222,11111222' 
NDBC,ioos:station:wmo:42003:1,2019-07-10T05:50:00Z,26.0070,-85.6480,5.0,7.0,150.0,10.0,'11111222,11111222,11111222' 
NDBC,ioos:station:wmo:42003:1,2019-07-10T06:50:00Z,26.0070,-85.6480,5.0,4.0,330.0,6.0,'11111222,11111222,11111222' 
NDBC,ioos:station:wmo:42003:1,2019-07-10T07:50:00Z,26.0070,-85.6480,5.0,2.0,110.0,3.0,'11111222,11111222,11111222' 
NDBC,ioos:station:wmo:42003:1,2019-07-10T08:50:00Z,26.0070,-85.6480,5.0,7.0,210.0,9.0,'11111222,11111222,11111222' 
NDBC,ioos:station:wmo:42003:1,2019-07-10T09:50:00Z,26.0070,-85.6480,5.0,7.0,280.0,9.0,'11111222,11111222,11111222' 
NDBC,ioos:station:wmo:42003:1,2019-07-10T10:50:00Z,26.0070,-85.6480,5.0,10.0,220.0,15.0,'11111222,11111222,11111222' 
NDBC,ioos:station:wmo:42003:1,2019-07-10T11:50:00Z,26.0070,-85.6480,5.0,7.0,240.0,9.0,'11111222,11111222,11111222' 
NDBC,ioos:station:wmo:42003:1,2019-07-10T12:50:00Z,26.0070,-85.6480,5.0,7.0,230.0,9.0,'11111222,11111222,11111222' 
NDBC,ioos:station:wmo:42003:1,2019-07-10T13:50:00Z,26.0070,-85.6480,5.0,6.0,200.0,8.0,'11111222,11111222,11111222' 
NDBC,ioos:station:wmo:42003:1,2019-07-10T14:50:00Z,26.0070,-85.6480,5.0,5.0,240.0,8.0,'11111222,11111222,11111222' 
NDBC,ioos:station:wmo:42003:1,2019-07-10T15:50:00Z,26.0070,-85.6480,5.0,5.0,200.0,6.0,'11111222,11111222,11111222' 
NDBC,ioos:station:wmo:42003:1,2019-07-10T16:50:00Z,26.0070,-85.6480,5.0,7.0,290.0,11.0,'11111222,11111222,11111222' 
NDBC,ioos:station:wmo:42003:1,2019-07-10T17:50:00Z,26.0070,-85.6480,5.0,8.0,290.0,10.0,'11111222,11111222,11111222' 
NDBC,ioos:station:wmo:42003:1,2019-07-10T18:50:00Z,26.0070,-85.6480,5.0,6.0,290.0,7.0,'11111222,11111222,11111222' 
NDBC,ioos:station:wmo:42003:1,2019-07-10T19:50:00Z,26.0070,-85.6480,5.0,6.0,230.0,8.0,'11111222,11111222,11111222' 
NDBC,ioos:station:wmo:42003:1,2019-07-10T20:50:00Z,26.0070,-85.6480,5.0,5.0,240.0,6.0,'11111222,11111222,11111222' 
NDBC,ioos:station:wmo:42003:1,2019-07-10T21:50:00Z,26.0070,-85.6480,5.0,5.0,220.0,7.0,'11111222,11111222,11111222' 
NDBC,ioos:station:wmo:42003:1,2019-07-10T22:50:00Z,26.0070,-85.6480,5.0,6.0,220.0,8.0,'11111222,11111222,11111222' 
NDBC,ioos:station:wmo:42003:1,2019-07-10T23:50:00Z,26.0070,-85.6480,5.0,6.0,210.0,7.0,'11111222,11111222,11111222' 
NDBC,ioos:station:wmo:42003:1,2019-07-11T00:50:00Z,26.0070,-85.6480,5.0,7.0,210.0,8.0,'11111222,11111222,11111222' 
NDBC,ioos:station:wmo:42003:1,2019-07-11T01:50:00Z,26.0070,-85.6480,5.0,8.0,220.0,10.0,'11111222,11111222,11111222' 
NDBC,ioos:station:wmo:42003:1,2019-07-11T02:50:00Z,26.0070,-85.6480,5.0,7.0,220.0,8.0,'11111222,11111222,11111222' 
NDBC,ioos:station:wmo:42003:1,2019-07-11T03:50:00Z,26.0070,-85.6480,5.0,7.0,200.0,9.0,'11111222,11111222,11111222' 
NDBC,ioos:station:wmo:42003:1,2019-07-11T04:50:00Z,26.0070,-85.6480,5.0,8.0,170.0,11.0,'11111222,11111222,11111222' 
NDBC,ioos:station:wmo:42003:1,2019-07-11T05:50:00Z,26.0070,-85.6480,5.0,8.0,200.0,9.0,'11111222,11111222,11111222' 
NDBC,ioos:station:wmo:42003:1,2019-07-11T06:50:00Z,26.0070,-85.6480,5.0,8.0,190.0,10.0,'11111222,11111222,11111222' 
NDBC,ioos:station:wmo:42003:1,2019-07-11T07:50:00Z,26.0070,-85.6480,5.0,9.0,190.0,11.0,'11111222,11111222,11111222' 
NDBC,ioos:station:wmo:42003:1,2019-07-11T08:50:00Z,26.0070,-85.6480,5.0,8.0,190.0,9.0,'11111222,11111222,11111222' 
NDBC,ioos:station:wmo:42003:1,2019-07-11T09:50:00Z,26.0070,-85.6480,5.0,9.0,180.0,11.0,'11111222,11111222,11111222' 
NDBC,ioos:station:wmo:42003:1,2019-07-11T10:50:00Z,26.0070,-85.6480,5.0,10.0,180.0,12.0,'11111222,11111222,11111222' 
NDBC,ioos:station:wmo:42003:1,2019-07-11T11:50:00Z,26.0070,-85.6480,5.0,11.0,190.0,14.0,'11111222,11111222,11111222' 
NDBC,ioos:station:wmo:42003:1,2019-07-11T12:50:00Z,26.0070,-85.6480,5.0,10.0,180.0,13.0,'11111222,11111222,11111222' 
NDBC,ioos:station:wmo:42003:1,2019-07-11T13:30:00Z,26.0070,-85.6480,5.0,12.0,180.0,15.0,'11111222,11111222,11111222' 
NDBC,ioos:station:wmo:42003:1,2019-07-11T14:50:00Z,26.0070,-85.6480,5.0,12.0,200.0,15.0,'11111222,11111222,11111222' 
NDBC,ioos:station:wmo:42003:1,2019-07-11T15:50:00Z,26.0070,-85.6480,5.0,11.0,200.0,13.0,'11111222,11111222,11111222' 
NDBC,ioos:station:wmo:42003:1,2019-07-11T16:50:00Z,26.0070,-85.6480,5.0,10.0,190.0,12.0,'11111222,11111222,11111222' 
NDBC,ioos:station:wmo:42003:1,2019-07-11T17:50:00Z,26.0070,-85.6480,5.0,11.0,190.0,18.0,'11111222,11111222,11111222' 
NDBC,ioos:station:wmo:42003:1,2019-07-11T18:50:00Z,26.0070,-85.6480,5.0,10.0,200.0,12.0,'11111222,11111222,11111222' 
NDBC,ioos:station:wmo:42003:1,2019-07-11T19:50:00Z,26.0070,-85.6480,5.0,11.0,220.0,14.0,'11111222,11111222,11111222' 
NDBC,ioos:station:wmo:42003:1,2019-07-11T20:50:00Z,26.0070,-85.6480,5.0,10.0,250.0,13.0,'11111222,11111222,11111222' 
NDBC,ioos:station:wmo:42003:1,2019-07-11T21:50:00Z,26.0070,-85.6480,5.0,9.0,200.0,10.0,'11111222,11111222,11111222' 
NDBC,ioos:station:wmo:42003:1,2019-07-11T22:30:00Z,26.0070,-85.6480,5.0,6.0,190.0,8.0,'11111222,11111222,11111222' 
NDBC,ioos:station:wmo:42003:1,2019-07-11T22:40:00Z,26.0070,-85.6480,5.0,6.0,180.0,8.0,'11111222,11111222,11111222' 
NDBC,ioos:station:wmo:42003:1,2019-07-12T01:50:00Z,26.0070,-85.6480,5.0,11.0,160.0,13.0,'11111222,11111222,11111222' 
NDBC,ioos:station:wmo:42003:1,2019-07-12T02:50:00Z,26.0070,-85.6480,5.0,11.0,180.0,14.0,'11111222,11111222,11111222' 
NDBC,ioos:station:wmo:42003:1,2019-07-12T03:50:00Z,26.0070,-85.6480,5.0,11.0,150.0,14.0,'11111222,11111222,11111222' 
NDBC,ioos:station:wmo:42003:1,2019-07-12T04:50:00Z,26.0070,-85.6480,5.0,11.0,170.0,14.0,'11111222,11111222,11111222' 
NDBC,ioos:station:wmo:42003:1,2019-07-12T05:50:00Z,26.0070,-85.6480,5.0,11.0,160.0,15.0,'11111222,11111222,11111222' 
NDBC,ioos:station:wmo:42003:1,2019-07-12T06:50:00Z,26.0070,-85.6480,5.0,10.0,170.0,12.0,'11111222,11111222,11111222' 
NDBC,ioos:station:wmo:42003:1,2019-07-12T07:50:00Z,26.0070,-85.6480,5.0,12.0,170.0,15.0,'11111222,11111222,11111222' 
NDBC,ioos:station:wmo:42003:1,2019-07-12T08:50:00Z,26.0070,-85.6480,5.0,10.0,190.0,13.0,'11111222,11111222,11111222' 
NDBC,ioos:station:wmo:42003:1,2019-07-12T09:50:00Z,26.0070,-85.6480,5.0,10.0,180.0,12.0,'11111222,11111222,11111222' 
NDBC,ioos:station:wmo:42003:1,2019-07-12T10:50:00Z,26.0070,-85.6480,5.0,11.0,200.0,14.0,'11111222,11111222,11111222' 
NDBC,ioos:station:wmo:42003:1,2019-07-12T11:50:00Z,26.0070,-85.6480,5.0,10.0,190.0,13.0,'11111222,11111222,11111222' 
NDBC,ioos:station:wmo:42003:1,2019-07-12T12:50:00Z,26.0070,-85.6480,5.0,10.0,200.0,13.0,'11111222,11111222,11111222' 
NDBC,ioos:station:wmo:42003:1,2019-07-12T13:50:00Z,26.0070,-85.6480,5.0,8.0,200.0,11.0,'11111222,11111222,11111222' 
NDBC,ioos:station:wmo:42003:1,2019-07-12T14:50:00Z,26.0070,-85.6480,5.0,8.0,190.0,10.0,'11111222,11111222,11111222' 
NDBC,ioos:station:wmo:42003:1,2019-07-12T15:50:00Z,26.0070,-85.6480,5.0,8.0,200.0,10.0,'11111222,11111222,11111222' 
NDBC,ioos:station:wmo:42003:1,2019-07-12T16:50:00Z,26.0070,-85.6480,5.0,9.0,200.0,11.0,'11111222,11111222,11111222' 
NDBC,ioos:station:wmo:42003:1,2019-07-12T17:50:00Z,26.0070,-85.6480,5.0,9.0,190.0,11.0,'11111222,11111222,11111222' 
NDBC,ioos:station:wmo:42003:1,2019-07-12T18:50:00Z,26.0070,-85.6480,5.0,8.0,200.0,10.0,'11111222,11111222,11111222' 
NDBC,ioos:station:wmo:42003:1,2019-07-12T19:50:00Z,26.0070,-85.6480,5.0,10.0,190.0,12.0,'11111222,11111222,11111222' 
NDBC,ioos:station:wmo:42003:1,2019-07-12T20:50:00Z,26.0070,-85.6480,5.0,7.0,190.0,10.0,'11111222,11111222,11111222' 
NDBC,ioos:station:wmo:42003:1,2019-07-12T21:50:00Z,26.0070,-85.6480,5.0,7.0,200.0,8.0,'11111222,11111222,11111222' 
NDBC,ioos:station:wmo:42003:1,2019-07-12T22:50:00Z,26.0070,-85.6480,5.0,8.0,180.0,9.0,'11111222,11111222,11111222' 
NDBC,ioos:station:wmo:42003:1,2019-07-12T23:50:00Z,26.0070,-85.6480,5.0,8.0,180.0,11.0,'11111222,11111222,11111222' 
NDBC,ioos:station:wmo:42003:1,2019-07-13T00:50:00Z,26.0070,-85.6480,5.0,8.0,180.0,10.0,'11111222,11111222,11111222' 
NDBC,ioos:station:wmo:42003:1,2019-07-13T01:50:00Z,26.0070,-85.6480,5.0,8.0,180.0,10.0,'11111222,11111222,11111222' 
NDBC,ioos:station:wmo:42003:1,2019-07-13T02:50:00Z,26.0070,-85.6480,5.0,7.0,180.0,9.0,'11111222,11111222,11111222' 
NDBC,ioos:station:wmo:42003:1,2019-07-13T03:50:00Z,26.0070,-85.6480,5.0,7.0,170.0,9.0,'11111222,11111222,11111222' 
NDBC,ioos:station:wmo:42003:1,2019-07-13T04:50:00Z,26.0070,-85.6480,5.0,7.0,160.0,9.0,'11111222,11111222,11111222' 
NDBC,ioos:station:wmo:42003:1,2019-07-13T05:50:00Z,26.0070,-85.6480,5.0,6.0,160.0,8.0,'11111222,11111222,11111222' 
NDBC,ioos:station:wmo:42003:1,2019-07-13T06:50:00Z,26.0070,-85.6480,5.0,7.0,140.0,10.0,'11111222,11111222,11111222' 
NDBC,ioos:station:wmo:42003:1,2019-07-13T07:50:00Z,26.0070,-85.6480,5.0,8.0,140.0,10.0,'11111222,11111222,11111222' 
NDBC,ioos:station:wmo:42003:1,2019-07-13T08:50:00Z,26.0070,-85.6480,5.0,8.0,140.0,10.0,'11111222,11111222,11111222' 
NDBC,ioos:station:wmo:42003:1,2019-07-13T09:50:00Z,26.0070,-85.6480,5.0,7.0,140.0,10.0,'11111222,11111222,11111222' 
NDBC,ioos:station:wmo:42003:1,2019-07-13T10:50:00Z,26.0070,-85.6480,5.0,6.0,140.0,9.0,'11111222,11111222,11111222' 
NDBC,ioos:station:wmo:42003:1,2019-07-13T11:50:00Z,26.0070,-85.6480,5.0,7.0,130.0,10.0,'11111222,11111222,11111222' 
NDBC,ioos:station:wmo:42003:1,2019-07-13T12:50:00Z,26.0070,-85.6480,5.0,7.0,130.0,9.0,'11111222,11111222,11111222' 
NDBC,ioos:station:wmo:42003:1,2019-07-13T13:50:00Z,26.0070,-85.6480,5.0,6.0,130.0,8.0,'11111222,11111222,11111222' 
NDBC,ioos:station:wmo:42003:1,2019-07-13T14:50:00Z,26.0070,-85.6480,5.0,7.0,130.0,8.0,'11111222,11111222,11111222' 
NDBC,ioos:station:wmo:42003:1,2019-07-13T15:50:00Z,26.0070,-85.6480,5.0,7.0,130.0,9.0,'11111222,11111222,11111222' 
NDBC,ioos:station:wmo:42003:1,2019-07-13T16:50:00Z,26.0070,-85.6480,5.0,7.0,130.0,9.0,'11111222,11111222,11111222' 
NDBC,ioos:station:wmo:42003:1,2019-07-13T17:50:00Z,26.0070,-85.6480,5.0,6.0,140.0,8.0,'11111222,11111222,11111222' 
NDBC,ioos:station:wmo:42003:1,2019-07-13T18:50:00Z,26.0070,-85.6480,5.0,6.0,130.0,8.0,'11111222,11111222,11111222' 
NDBC,ioos:station:wmo:42003:1,2019-07-13T19:50:00Z,26.0070,-85.6480,5.0,5.0,130.0,7.0,'11111222,11111222,11111222' 
NDBC,ioos:station:wmo:42003:1,2019-07-13T20:50:00Z,26.0070,-85.6480,5.0,6.0,120.0,8.0,'11111222,11111222,11111222' 
NDBC,ioos:station:wmo:42003:1,2019-07-13T21:50:00Z,26.0070,-85.6480,5.0,7.0,130.0,8.0,'11111222,11111222,11111222' 
NDBC,ioos:station:wmo:42003:1,2019-07-13T22:50:00Z,26.0070,-85.6480,5.0,6.0,130.0,7.0,'11111222,11111222,11111222' 
NDBC,ioos:station:wmo:42003:1,2019-07-13T23:50:00Z,26.0070,-85.6480,5.0,6.0,120.0,8.0,'11111222,11111222,11111222' 
NDBC,ioos:station:wmo:42003:1,2019-07-14T00:50:00Z,26.0070,-85.6480,5.0,6.0,110.0,7.0,'11111222,11111222,11111222' 
NDBC,ioos:station:wmo:42003:1,2019-07-14T01:50:00Z,26.0070,-85.6480,5.0,6.0,110.0,8.0,'11111222,11111222,11111222' 
NDBC,ioos:station:wmo:42003:1,2019-07-14T02:50:00Z,26.0070,-85.6480,5.0,6.0,110.0,8.0,'11111222,11111222,11111222' 
NDBC,ioos:station:wmo:42003:1,2019-07-14T03:50:00Z,26.0070,-85.6480,5.0,7.0,100.0,9.0,'11111222,11111222,11111222' 
NDBC,ioos:station:wmo:42003:1,2019-07-14T04:50:00Z,26.0070,-85.6480,5.0,7.0,100.0,9.0,'11111222,11111222,11111222' 
NDBC,ioos:station:wmo:42003:1,2019-07-14T05:50:00Z,26.0070,-85.6480,5.0,8.0,100.0,10.0,'11111222,11111222,11111222' 
NDBC,ioos:station:wmo:42003:1,2019-07-14T06:50:00Z,26.0070,-85.6480,5.0,7.0,110.0,9.0,'11111222,11111222,11111222' 
NDBC,ioos:station:wmo:42003:1,2019-07-14T07:50:00Z,26.0070,-85.6480,5.0,7.0,110.0,8.0,'11111222,11111222,11111222' 
NDBC,ioos:station:wmo:42003:1,2019-07-14T08:50:00Z,26.0070,-85.6480,5.0,7.0,120.0,9.0,'11111222,11111222,11111222' 
NDBC,ioos:station:wmo:42003:1,2019-07-14T09:50:00Z,26.0070,-85.6480,5.0,8.0,120.0,10.0,'11111222,11111222,11111222' 
NDBC,ioos:station:wmo:42003:1,2019-07-14T10:50:00Z,26.0070,-85.6480,5.0,8.0,130.0,10.0,'11111222,11111222,11111222' 
NDBC,ioos:station:wmo:42003:1,2019-07-14T11:50:00Z,26.0070,-85.6480,5.0,7.0,130.0,9.0,'11111222,11111222,11111222' 
NDBC,ioos:station:wmo:42003:1,2019-07-14T12:50:00Z,26.0070,-85.6480,5.0,7.0,130.0,10.0,'11111222,11111222,11111222' 
NDBC,ioos:station:wmo:42003:1,2019-07-14T13:50:00Z,26.0070,-85.6480,5.0,8.0,130.0,10.0,'11111222,11111222,11111222' 
NDBC,ioos:station:wmo:42003:1,2019-07-14T14:50:00Z,26.0070,-85.6480,5.0,7.0,130.0,9.0,'11111222,11111222,11111222' 
NDBC,ioos:station:wmo:42003:1,2019-07-14T15:50:00Z,26.0070,-85.6480,5.0,6.0,130.0,8.0,'11111222,11111222,11111222' 
NDBC,ioos:station:wmo:42003:1,2019-07-14T16:50:00Z,26.0070,-85.6480,5.0,6.0,130.0,8.0,'11111222,11111222,11111222' 
NDBC,ioos:station:wmo:42003:1,2019-07-14T17:50:00Z,26.0070,-85.6480,5.0,6.0,130.0,8.0,'11111222,11111222,11111222' 
NDBC,ioos:station:wmo:42003:1,2019-07-14T18:50:00Z,26.0070,-85.6480,5.0,5.0,120.0,7.0,'11111222,11111222,11111222' 
NDBC,ioos:station:wmo:42003:1,2019-07-14T19:50:00Z,26.0070,-85.6480,5.0,5.0,120.0,6.0,'11111222,11111222,11111222' 
NDBC,ioos:station:wmo:42003:1,2019-07-14T20:50:00Z,26.0070,-85.6480,5.0,5.0,120.0,7.0,'11111222,11111222,11111222' 
NDBC,ioos:station:wmo:42003:1,2019-07-14T21:50:00Z,26.0070,-85.6480,5.0,5.0,120.0,7.0,'11111222,11111222,11111222' 
NDBC,ioos:station:wmo:42003:1,2019-07-14T22:50:00Z,26.0070,-85.6480,5.0,6.0,110.0,7.0,'11111222,11111222,11111222' 
NDBC,ioos:station:wmo:42003:1,2019-07-14T23:40:00Z,26.0070,-85.6480,5.0,6.0,110.0,7.0,'11111222,11111222,11111222' 
NDBC,ioos:station:wmo:42003:1,2019-07-15T00:50:00Z,26.0070,-85.6480,5.0,5.0,110.0,6.0,'11111222,11111222,11111222' 
NDBC,ioos:station:wmo:42003:1,2019-07-15T01:50:00Z,26.0070,-85.6480,5.0,6.0,110.0,7.0,'11111222,11111222,11111222' 
NDBC,ioos:station:wmo:42003:1,2019-07-15T02:50:00Z,26.0070,-85.6480,5.0,6.0,110.0,7.0,'11111222,11111222,11111222' 
NDBC,ioos:station:wmo:42003:1,2019-07-15T03:50:00Z,26.0070,-85.6480,5.0,7.0,110.0,8.0,'11111222,11111222,11111222' 
NDBC,ioos:station:wmo:42003:1,2019-07-15T04:50:00Z,26.0070,-85.6480,5.0,6.0,120.0,8.0,'11111222,11111222,11111222' 
NDBC,ioos:station:wmo:42003:1,2019-07-15T05:50:00Z,26.0070,-85.6480,5.0,5.0,120.0,7.0,'11111222,11111222,11111222' 
NDBC,ioos:station:wmo:42003:1,2019-07-15T06:50:00Z,26.0070,-85.6480,5.0,6.0,110.0,7.0,'11111222,11111222,11111222' 
NDBC,ioos:station:wmo:42003:1,2019-07-15T07:40:00Z,26.0070,-85.6480,5.0,6.0,110.0,7.0,'11111222,11111222,11111222' 
NDBC,ioos:station:wmo:42003:1,2019-07-15T08:40:00Z,26.0070,-85.6480,5.0,5.0,110.0,6.0,'11111222,11111222,11111222' 
NDBC,ioos:station:wmo:42003:1,2019-07-15T09:50:00Z,26.0070,-85.6480,5.0,6.0,110.0,7.0,'11111222,11111222,11111222' 
NDBC,ioos:station:wmo:42003:1,2019-07-15T10:50:00Z,26.0070,-85.6480,5.0,6.0,100.0,8.0,'11111222,11111222,11111222' 
NDBC,ioos:station:wmo:42003:1,2019-07-15T11:50:00Z,26.0070,-85.6480,5.0,6.0,100.0,8.0,'11111222,11111222,11111222' 
NDBC,ioos:station:wmo:42003:1,2019-07-15T12:50:00Z,26.0070,-85.6480,5.0,6.0,100.0,7.0,'11111222,11111222,11111222' 
NDBC,ioos:station:wmo:42003:1,2019-07-15T13:50:00Z,26.0070,-85.6480,5.0,4.0,100.0,5.0,'11111222,11111222,11111222' 
NDBC,ioos:station:wmo:42003:1,2019-07-15T14:50:00Z,26.0070,-85.6480,5.0,3.0,90.0,4.0,'11111222,11111222,11111222' 
NDBC,ioos:station:wmo:42003:1,2019-07-15T15:50:00Z,26.0070,-85.6480,5.0,4.0,100.0,7.0,'11111222,11111222,11111222' 
NDBC,ioos:station:wmo:42003:1,2019-07-15T16:50:00Z,26.0070,-85.6480,5.0,4.0,110.0,5.0,'11111222,11111222,11111222' 
NDBC,ioos:station:wmo:42003:1,2019-07-15T17:50:00Z,26.0070,-85.6480,5.0,5.0,100.0,6.0,'11111222,11111222,11111222' 
NDBC,ioos:station:wmo:42003:1,2019-07-15T18:50:00Z,26.0070,-85.6480,5.0,5.0,100.0,6.0,'11111222,11111222,11111222' 
NDBC,ioos:station:wmo:42003:1,2019-07-15T19:50:00Z,26.0070,-85.6480,5.0,5.0,90.0,6.0,'11111222,11111222,11111222' 
NDBC,ioos:station:wmo:42003:1,2019-07-15T20:50:00Z,26.0070,-85.6480,5.0,5.0,80.0,6.0,'11111222,11111222,11111222' 
NDBC,ioos:station:wmo:42003:1,2019-07-15T21:50:00Z,26.0070,-85.6480,5.0,6.0,90.0,7.0,'11111222,11111222,11111222' 
NDBC,ioos:station:wmo:42003:1,2019-07-15T22:50:00Z,26.0070,-85.6480,5.0,6.0,90.0,7.0,'11111222,11111222,11111222' 
NDBC,ioos:station:wmo:42003:1,2019-07-15T23:40:00Z,26.0070,-85.6480,5.0,6.0,90.0,7.0,'11111222,11111222,11111222' 
NDBC,ioos:station:wmo:42003:1,2019-07-16T00:50:00Z,26.0070,-85.6480,5.0,6.0,90.0,8.0,'11111222,11111222,11111222' 
NDBC,ioos:station:wmo:42003:1,2019-07-16T01:50:00Z,26.0070,-85.6480,5.0,5.0,90.0,7.0,'11111222,11111222,11111222' 
NDBC,ioos:station:wmo:42003:1,2019-07-16T02:50:00Z,26.0070,-85.6480,5.0,5.0,100.0,7.0,'11111222,11111222,11111222' 
NDBC,ioos:station:wmo:42003:1,2019-07-16T03:50:00Z,26.0070,-85.6480,5.0,5.0,100.0,6.0,'11111222,11111222,11111222' 
NDBC,ioos:station:wmo:42003:1,2019-07-16T04:50:00Z,26.0070,-85.6480,5.0,4.0,110.0,6.0,'11111222,11111222,11111222' 
NDBC,ioos:station:wmo:42003:1,2019-07-16T05:50:00Z,26.0070,-85.6480,5.0,5.0,100.0,5.0,'11111222,11111222,11111222' 
NDBC,ioos:station:wmo:42003:1,2019-07-16T06:40:00Z,26.0070,-85.6480,5.0,4.0,80.0,5.0,'11111222,11111222,11111222' 
NDBC,ioos:station:wmo:42003:1,2019-07-16T07:50:00Z,26.0070,-85.6480,5.0,5.0,80.0,6.0,'11111222,11111222,11111222' 
NDBC,ioos:station:wmo:42003:1,2019-07-16T08:50:00Z,26.0070,-85.6480,5.0,6.0,90.0,7.0,'11111222,11111222,11111222' 
NDBC,ioos:station:wmo:42003:1,2019-07-16T09:50:00Z,26.0070,-85.6480,5.0,6.0,100.0,7.0,'11111222,11111222,11111222' 
NDBC,ioos:station:wmo:42003:1,2019-07-16T10:40:00Z,26.0070,-85.6480,5.0,6.0,100.0,7.0,'11111222,11111222,11111222' 
NDBC,ioos:station:wmo:42003:1,2019-07-16T11:50:00Z,26.0070,-85.6480,5.0,6.0,110.0,7.0,'11111222,11111222,11111222' 
NDBC,ioos:station:wmo:42003:1,2019-07-16T12:50:00Z,26.0070,-85.6480,5.0,6.0,100.0,7.0,'11111222,11111222,11111222' 
NDBC,ioos:station:wmo:42003:1,2019-07-16T13:50:00Z,26.0070,-85.6480,5.0,7.0,110.0,8.0,'11111222,11111222,11111222' 
NDBC,ioos:station:wmo:42003:1,2019-07-16T14:50:00Z,26.0070,-85.6480,5.0,6.0,120.0,7.0,'11111222,11111222,11111222' 
NDBC,ioos:station:wmo:42003:1,2019-07-16T15:50:00Z,26.0070,-85.6480,5.0,5.0,110.0,5.0,'11111222,11111222,11111222' 
NDBC,ioos:station:wmo:42003:1,2019-07-16T16:50:00Z,26.0070,-85.6480,5.0,4.0,120.0,5.0,'11111222,11111222,11111222' 
NDBC,ioos:station:wmo:42003:1,2019-07-16T17:50:00Z,26.0070,-85.6480,5.0,5.0,120.0,6.0,'11111222,11111222,11111222' 
NDBC,ioos:station:wmo:42003:1,2019-07-16T18:50:00Z,26.0070,-85.6480,5.0,3.0,110.0,4.0,'11111222,11111222,11111222' 
NDBC,ioos:station:wmo:42003:1,2019-07-16T19:50:00Z,26.0070,-85.6480,5.0,3.0,80.0,4.0,'11111222,11111222,11111222' 
NDBC,ioos:station:wmo:42003:1,2019-07-16T20:50:00Z,26.0070,-85.6480,5.0,3.0,80.0,4.0,'11111222,11111222,11111222' 
NDBC,ioos:station:wmo:42003:1,2019-07-16T21:50:00Z,26.0070,-85.6480,5.0,4.0,90.0,5.0,'11111222,11111222,11111222' 
NDBC,ioos:station:wmo:42003:1,2019-07-16T22:50:00Z,26.0070,-85.6480,5.0,3.0,90.0,4.0,'11111222,11111222,11111222' 
NDBC,ioos:station:wmo:42003:1,2019-07-16T23:50:00Z,26.0070,-85.6480,5.0,3.0,90.0,4.0,'11111222,11111222,11111222' 
NDBC,ioos:station:wmo:42003:1,2019-07-17T00:50:00Z,26.0070,-85.6480,5.0,5.0,80.0,6.0,'11111222,11111222,11111222' 
NDBC,ioos:station:wmo:42003:1,2019-07-17T01:50:00Z,26.0070,-85.6480,5.0,5.0,90.0,5.0,'11111222,11111222,11111222' 
NDBC,ioos:station:wmo:42003:1,2019-07-17T02:50:00Z,26.0070,-85.6480,5.0,4.0,90.0,5.0,'11111222,11111222,11111222' 
NDBC,ioos:station:wmo:42003:1,2019-07-17T03:50:00Z,26.0070,-85.6480,5.0,5.0,90.0,5.0,'11111222,11111222,11111222' 
NDBC,ioos:station:wmo:42003:1,2019-07-17T04:50:00Z,26.0070,-85.6480,5.0,4.0,110.0,5.0,'11111222,11111222,11111222' 
NDBC,ioos:station:wmo:42003:1,2019-07-17T05:50:00Z,26.0070,-85.6480,5.0,4.0,100.0,5.0,'11111222,11111222,11111222' 
NDBC,ioos:station:wmo:42003:1,2019-07-17T06:50:00Z,26.0070,-85.6480,5.0,5.0,90.0,6.0,'11111222,11111222,11111222' 
NDBC,ioos:station:wmo:42003:1,2019-07-17T07:50:00Z,26.0070,-85.6480,5.0,4.0,100.0,5.0,'11111222,11111222,11111222' 
NDBC,ioos:station:wmo:42003:1,2019-07-17T08:50:00Z,26.0070,-85.6480,5.0,4.0,110.0,5.0,'11111222,11111222,11111222' 
NDBC,ioos:station:wmo:42003:1,2019-07-17T09:50:00Z,26.0070,-85.6480,5.0,4.0,100.0,5.0,'11111222,11111222,11111222' 
NDBC,ioos:station:wmo:42003:1,2019-07-17T10:50:00Z,26.0070,-85.6480,5.0,4.0,100.0,5.0,'11111222,11111222,11111222' 
NDBC,ioos:station:wmo:42003:1,2019-07-17T11:50:00Z,26.0070,-85.6480,5.0,5.0,110.0,6.0,'11111222,11111222,11111222' 
NDBC,ioos:station:wmo:42003:1,2019-07-17T12:50:00Z,26.0070,-85.6480,5.0,4.0,110.0,5.0,'11111222,11111222,11111222' 
NDBC,ioos:station:wmo:42003:1,2019-07-17T13:50:00Z,26.0070,-85.6480,5.0,4.0,130.0,5.0,'11111222,11111222,11111222' 
NDBC,ioos:station:wmo:42003:1,2019-07-17T14:50:00Z,26.0070,-85.6480,5.0,5.0,120.0,6.0,'11111222,11111222,11111222' 
NDBC,ioos:station:wmo:42003:1,2019-07-17T15:50:00Z,26.0070,-85.6480,5.0,5.0,120.0,6.0,'11111222,11111222,11111222' 
NDBC,ioos:station:wmo:42003:1,2019-07-17T16:50:00Z,26.0070,-85.6480,5.0,4.0,120.0,5.0,'11111222,11111222,11111222' 
NDBC,ioos:station:wmo:42003:1,2019-07-17T17:50:00Z,26.0070,-85.6480,5.0,4.0,130.0,5.0,'11111222,11111222,11111222' 
NDBC,ioos:station:wmo:42003:1,2019-07-18T16:50:00Z,26.0070,-85.6480,5.0,3.0,80.0,4.0,'11111222,11111222,11111222' 
NDBC,ioos:station:wmo:42003:1,2019-07-18T17:50:00Z,26.0070,-85.6480,5.0,3.0,80.0,4.0,'11111222,11111222,11111222' 
NDBC,ioos:station:wmo:42003:1,2019-07-18T18:50:00Z,26.0070,-85.6480,5.0,4.0,90.0,5.0,'11111222,11111222,11111222' 
NDBC,ioos:station:wmo:42003:1,2019-07-18T19:50:00Z,26.0070,-85.6480,5.0,4.0,100.0,5.0,'11111222,11111222,11111222' 
NDBC,ioos:station:wmo:42003:1,2019-07-18T20:50:00Z,26.0070,-85.6480,5.0,5.0,100.0,6.0,'11111222,11111222,11111222' 
NDBC,ioos:station:wmo:42003:1,2019-07-18T21:50:00Z,26.0070,-85.6480,5.0,3.0,100.0,5.0,'11111222,11111222,11111222' 
NDBC,ioos:station:wmo:42003:1,2019-07-18T22:50:00Z,26.0070,-85.6480,5.0,3.0,100.0,4.0,'11111222,11111222,11111222' 
NDBC,ioos:station:wmo:42003:1,2019-07-18T23:50:00Z,26.0070,-85.6480,5.0,3.0,100.0,4.0,'11111222,11111222,11111222' 
NDBC,ioos:station:wmo:42003:1,2019-07-19T00:50:00Z,26.0070,-85.6480,5.0,4.0,80.0,5.0,'11111222,11111222,11111222' 
NDBC,ioos:station:wmo:42003:1,2019-07-19T01:50:00Z,26.0070,-85.6480,5.0,4.0,90.0,5.0,'11111222,11111222,11111222' 
NDBC,ioos:station:wmo:42003:1,2019-07-19T02:50:00Z,26.0070,-85.6480,5.0,4.0,70.0,6.0,'11111222,11111222,11111222' 
NDBC,ioos:station:wmo:42003:1,2019-07-19T03:50:00Z,26.0070,-85.6480,5.0,4.0,70.0,5.0,'11111222,11111222,11111222' 
NDBC,ioos:station:wmo:42003:1,2019-07-19T04:50:00Z,26.0070,-85.6480,5.0,5.0,90.0,6.0,'11111222,11111222,11111222' 
NDBC,ioos:station:wmo:42003:1,2019-07-19T05:50:00Z,26.0070,-85.6480,5.0,4.0,90.0,5.0,'11111222,11111222,11111222' 